CZ-6A DEB, 56612

Orbit data source: Space-Track

CZ-6A DEB, 56612 is space debris in SSO originally from a launch on Fri, 11 Nov 2022 UTC launched from the Taiyaun Space Center, China (TSC). Debris objects in space refer to the collection of defunct objects orbiting the Earth. Examples of debris include non-operational satellites, rocket bodies, and fragments generated from explosions, collisions, or faulty payload assembly.

Loading next visibility...
Identifier
56612, 2022-151AEL
Orbit
SSO
Country
Flag of CNCN / PRC
Related business
Manufacturer
SAST
Mission
Spacecraft
Bus & Motor
Unknown
Mass
Unknown
Launch date (UTC)
2022-11-11 (4 years ago)
Launch vehicle
Unknown
Launch site
Taiyaun Space Center, China (TSC)
Object type
Payload
Rocket body
Debris
Shape & HBR
Unknown shape, 0.1 m
Radar Cross Section
Small (<0.1 m²)

Expand to show TLE details & history
Last TLE update: 2 days ago

TLE from 2 days ago
0 CZ-6A DEB
1 56612U 22151AEL 26253.28708168  .00000584  00000-0  32218-3 0  9995
2 56612  98.8264 258.1490 0036645  61.8869 298.6001 14.15047894174292
Epoch: 2026-09-10T06:53Z
TLE epoch observation values (Epoch: 2026-09-10T06:53:23.857Z)
Latitude
0.00005°
Longitude
165.47263°
Altitude
832.46 km
Speed
7.443 km/s
True Right ascension
17h 12m 35s
True Declination
0° 00' 00"
Sunlit
Object was in daylight at epoch
Visualization orbit readout
Latitude
Unknown
Longitude
Unknown
Altitude
Unknown
Speed
Unknown
Apparent Right ascension
Unknown
Apparent Declination
Unknown
Sunlit
N/A
Visualization observer readout
Local Sidereal Time
14:38:20
Azimuth
Unknown
Elevation
Unknown
Doppler factor
Unknown
Orbital elements
Apogee altitude
865.768 km
Perigee altitude
812.872 km
Semi-major axis
7,217.457 km
Eccentricity
0.00366
Inclination
98.8264°
RAAN
258.149°
Arg. of periapsis
61.8869°
True anomaly
298.23061°
Mean anomaly
298.6001°
Eccentric anomaly
298.41544°
Mean motion
3.5397 °/min
Orbital period
101.7 mins
BSTAR
0.00032218
Loading maneuver chart data...
Computing Atmospheric mass density...
Loading historical data...
Loading historical data...
Loading historical data...
Loading historical data...
Loading historical data...
Loading historical data...
Loading historical data...

Documentation

Showing up to 5 results
|